Rbgn^[z[y[W
メイン
   新天体発見情報
     Comet C/2021 A6 (PANSTARRS)
投稿するにはまず登録を

フラット表示 前のトピック | 次のトピック
投稿者 スレッド
佐藤裕久
投稿日時: 2021-1-25 18:36
モデレータ
登録日: 2005-6-12
居住地: 日本
投稿: 2626
オンライン
Comet C/2021 A6 (PANSTARRS)

Y. Ramanjooloo (ハワイ大学天文学研究所)の通報によると、1月8.6日UT、Haleakalaにある
Pan-STARRS1 1.8-m Ritchey-Chretien反射望遠鏡で得た45秒4枚のw-バンドCCD画像から彗星を
発見した。この彗星は1".5-1".6のシーイングで3".1(半値全幅:FWHM)あり、p.a. 185°に2".5
の扇のようなの尾がある。

彗星機能の報告は次の通り:

OC   Date        Reporter           Coma    Tail    PA          Exposures
G96  2020-12-22  D. Rankin          8"      8"      230 
568  2021-01-10  R. Weryk           5"     40"      220           6x60s
Q62  2021-01-10  H. Sato            6"                           16x60s
N51  2021-01-10  K. Sharma          8"     30"      230          30x300s

発見位置は次のとおり、

     2021 UT             R.A. (2000) Decl.       Mag.
     Jan.  8.60330   10 44 42.64   - 9 29 27.2   20.8
           8.61562   10 44 42.51   - 9 29 24.7   20.8
           8.62798   10 44 42.42   - 9 29 22.5   20.9
           8.64031   10 44 42.26   - 9 29 19.8   21.1

MPCの準放物線軌道要素、位置推算表は次のとおり、

Orbital elements:
    C/2021 A6 (PANSTARRS)                                                       
Epoch 2021 July 5.0 TT = JDT 2459400.5                                          
T 2021 Apr. 27.71477 TT                                 Rudenko                 
q   7.9319629            (2000.0)            P               Q                  
z  +0.0002290      Peri.  351.28804     -0.94023986     -0.21314573             
 +/-0.0001323      Node   164.08639     +0.34028855     -0.55985872             
e   0.9981832      Incl.   75.58201     -0.01235737     +0.80070414             
From 47 observations 2020 Nov. 26-2021 Jan. 13, mean residual 0".4.             
                                                                                
    C/2021 A6 (PANSTARRS)                                                       
Epoch 2020 Dec. 17.0 TT = JDT 2459200.5                                         
T 2021 Apr. 28.05113 TT                                 Rudenko                 
q   7.9319170            (2000.0)            P               Q                  
z  +0.0002326      Peri.  351.30866     -0.94031939     -0.21283499             
 +/-0.0001323      Node   164.08786     +0.34007913     -0.56007910             
e   0.9981551      Incl.   75.57488     -0.01206752     +0.80063267             
From 47 observations 2020 Nov. 26-2021 Jan. 13, mean residual 0".4.             
                                                                                
Ephemeris:
Date    TT    R. A. (2000) Decl.     Delta      r    Elong.  Phase   m1
2020 12 16    10 46 11.3 -10 22 04   7.7964  7.9734    96.8     7.0  20.5
...
2020 12 31    10 45 45.7 -09 53 20   7.5480  7.9646   111.7     6.6  20.4
...
2021 01 08    10 44 48.2 -09 31 19   7.4248  7.9603   119.9     6.1  20.4
...
2021 01 14    10 43 45.9 -09 11 30   7.3388  7.9573   126.0     5.7  20.3
2021 01 15    10 43 34.0 -09 07 55   7.3251  7.9568   127.1     5.7  20.3
2021 01 16    10 43 21.7 -09 04 15   7.3116  7.9563   128.1     5.6  20.3
...
2021 01 22    10 41 59.4 -08 40 36   7.2349  7.9536   134.3     5.1  20.3
...
2021 01 30    10 39 49.3 -08 04 37   7.1456  7.9501   142.5     4.3  20.3
...
2021 02 14    10 34 57.4 -06 44 28   7.0248  7.9445   157.2     2.8  20.2

(MPEC 2021-A210、CBET 4916)

フラット表示 前のトピック | 次のトピック

題名 投稿者 日時
 » Comet C/2021 A6 (PANSTARRS) 佐藤裕久 2021-1-25 18:36

投稿するにはまず登録を
 
© 1999 Tsutomu Seki.